FW4701 Weather Reports


time (UTC)temp
C
wind
direction
speed
KPH
gust
KPH
rain 1hr
cm
rain 24hr
cm
rain mn
cm
humidity
%
barometer
mb
20260504050508 14 246 4.8 11.3 0.00 0.00 0.00 65 1005.8
20260504050016 15 210 3.2 11.3 0.00 0.00 0.00 64 1005.8
20260504045504 15 238 3.2 11.3 0.00 0.00 0.00 64 1005.7
20260504045004 15 215 4.8 11.3 0.00 0.00 0.00 64 1005.7
20260504044540 16 123 0.0 1.6 0.00 0.00 0.00 51 1016.8
20260504044518 15 233 1.6 11.3 0.00 0.00 0.00 64 1005.8
20260504044005 15 228 4.8 16.1 0.00 0.00 0.00 64 1005.7
20260504043508 15 236 6.4 16.1 0.00 0.00 0.00 63 1005.8
20260504043047 16 123 0.0 1.6 0.00 0.00 0.00 51 1016.8
20260504043024 15 291 4.8 11.3 0.00 0.00 0.00 63 1005.7
20260504042506 15 221 3.2 11.3 0.00 0.00 0.00 63 1005.6
20260504042002 15 160 3.2 11.3 0.00 0.00 0.00 62 1005.7
20260504041539 16 123 0.0 0.0 0.00 0.00 0.00 51 1016.9
20260504041510 15 200 1.6 9.7 0.00 0.00 0.00 62 1005.6
20260504041003 15 215 3.2 9.7 0.00 0.00 0.00 61 1005.6
20260504040502 15 175 3.2 9.7 0.00 0.00 0.00 61 1005.7
20260504040036 16 123 1.6 4.8 0.00 0.00 0.00 51 1017.0
20260504040010 15 205 3.2 9.7 0.00 0.00 0.00 61 1005.7
20260504035507 15 186 3.2 11.3 0.00 0.00 0.00 60 1005.7
20260504035005 15 196 4.8 11.3 0.00 0.00 0.00 60 1005.7
20260504034534 17 119 1.6 4.8 0.00 0.00 0.00 50 1017.1
20260504034517 15 182 4.8 11.3 0.00 0.00 0.00 60 1005.8
20260504034007 15 181 3.2 9.7 0.00 0.00 0.00 60 1005.9
20260504033507 15 195 4.8 9.7 0.00 0.00 0.00 59 1005.9
20260504033037 17 121 0.0 3.2 0.00 0.00 0.00 50 1017.1
20260504033020 15 214 3.2 8.0 0.00 0.00 0.00 59 1006.0
20260504032511 15 188 1.6 8.0 0.00 0.00 0.00 59 1006.1
20260504032009 16 179 3.2 8.0 0.00 0.00 0.00 59 1006.1
20260504031529 17 119 0.0 3.2 0.00 0.00 0.00 48 1016.8
20260504031526 16 175 1.6 8.0 0.00 0.00 0.00 58 1006.2
20260504031009 16 205 1.6 8.0 0.00 0.00 0.00 58 1006.2
20260504030503 16 157 0.0 6.4 0.00 0.00 0.00 58 1006.2
20260504030027 17 121 0.0 4.8 0.00 0.00 0.00 48 1016.7
20260504030010 16 217 1.6 6.4 0.00 0.00 0.00 58 1006.2
20260504025503 16 190 3.2 6.4 0.00 0.00 0.00 57 1006.2
20260504025004 16 200 3.2 8.0 0.00 0.00 0.00 57 1006.3
20260504024524 18 124 0.0 1.6 0.00 0.00 0.00 47 1016.9
20260504024511 16 205 0.0 8.0 0.00 0.00 0.00 56 1006.3
20260504024003 16 186 3.2 11.3 0.00 0.00 0.00 56 1006.2
20260504023504 16 175 3.2 11.3 0.00 0.00 0.00 56 1006.1
20260504023027 18 124 0.0 1.6 0.00 0.00 0.00 47 1016.8
20260504023019 16 184 1.6 6.4 0.00 0.00 0.00 56 1006.1
20260504022509 16 168 1.6 8.0 0.00 0.00 0.00 55 1006.1
20260504022007 17 207 3.2 8.0 0.00 0.00 0.00 54 1006.1
20260504021622 19 139 0.0 0.0 0.00 0.00 0.00 45 1016.9
20260504021520 17 166 1.6 9.7 0.00 0.00 0.00 54 1006.1
20260504021006 17 194 1.6 9.7 0.00 0.00 0.00 54 1006.1
20260504020508 17 172 3.2 8.0 0.00 0.00 0.00 53 1006.0
20260504020024 17 188 1.6 8.0 0.00 0.00 0.00 53 1005.9
20260504020019 20 144 0.0 1.6 0.00 0.00 0.00 43 1016.6
20260504015506 17 226 3.2 12.9 0.00 0.00 0.00 53 1005.9
20260504015005 17 215 4.8 12.9 0.00 0.00 0.00 52 1005.8
20260504014616 20 148 0.0 1.6 0.00 0.00 0.00 40 1016.4
20260504014510 17 219 4.8 11.3 0.00 0.00 0.00 52 1005.7
20260504014004 17 74 4.8 9.7 0.00 0.00 0.00 51 1005.7
20260504013506 18 178 3.2 12.9 0.00 0.00 0.00 51 1005.6
20260504013021 18 170 3.2 12.9 0.00 0.00 0.00 50 1005.6
20260504013018 21 148 0.0 3.2 0.00 0.00 0.00 38 1016.3
20260504012505 18 220 4.8 14.5 0.00 0.00 0.00 50 1005.6
20260504012007 18 172 6.4 14.5 0.00 0.00 0.00 49 1005.5
20260504011519 18 228 4.8 12.9 0.00 0.00 0.00 48 1005.5
20260504011006 18 183 4.8 12.9 0.00 0.00 0.00 48 1005.5
20260504010512 19 196 3.2 11.3 0.00 0.00 0.00 48 1005.4
20260504010022 19 196 1.6 12.9 0.00 0.00 0.00 47 1005.4
20260504010010 22 162 0.0 1.6 0.00 0.00 0.00 34 1016.4
20260504005508 20 214 4.8 12.9 0.00 0.00 0.00 46 1005.4
20260504005007 20 200 4.8 12.9 0.00 0.00 0.00 46 1005.5
20260504004611 22 129 0.0 4.8 0.00 0.00 0.00 31 1016.3
20260504004530 20 193 3.2 11.3 0.00 0.00 0.00 45 1005.5
20260504004003 20 215 4.8 17.7 0.00 0.00 0.00 44 1005.5
20260504003503 20 194 3.2 17.7 0.00 0.00 0.00 44 1005.5
20260504003013 20 212 4.8 12.9 0.00 0.00 0.00 43 1005.5
20260504003006 23 164 1.6 8.0 0.00 0.00 0.00 28 1016.3
20260504002505 20 159 4.8 14.5 0.00 0.00 0.00 43 1005.5
20260504002005 20 156 1.6 20.9 0.00 0.00 0.00 42 1005.5
20260504001518 21 253 9.7 20.9 0.00 0.00 0.00 42 1005.6
20260504001502 25 183 1.6 12.9 0.00 0.00 0.00 27 1016.5
20260504001004 21 200 8.0 16.1 0.00 0.00 0.00 42 1005.5
20260504000506 21 276 6.4 16.1 0.00 0.00 0.00 41 1005.6
20260504000130 25 122 4.8 12.9 0.00 0.00 0.00 27 1016.5
20260504000049 21 234 4.8 25.7 0.00 0.00 0.00 42 1005.5
20260503235509 21 223 8.0 25.7 0.00 0.00 0.00 41 1005.5
20260503235008 21 198 11.3 24.1 0.00 0.00 0.00 41 1005.5
20260503234556 25 150 1.6 9.7 0.00 0.00 0.00 24 1016.7
20260503234526 21 242 9.7 24.1 0.00 0.00 0.00 41 1005.5
20260503234008 21 220 8.0 24.1 0.00 0.00 0.00 41 1005.5
20260503233507 21 234 8.0 24.1 0.00 0.00 0.00 41 1005.5
20260503233057 26 143 4.8 12.9 0.00 0.00 0.00 23 1016.7
20260503233010 21 227 11.3 24.1 0.00 0.00 0.00 40 1005.5
20260503232504 21 213 6.4 27.4 0.00 0.00 0.00 41 1005.6
20260503232004 21 232 9.7 29.0 0.00 0.00 0.00 40 1005.6
20260503231552 26 179 4.8 19.3 0.00 0.00 0.00 22 1016.7
20260503231516 21 209 14.5 29.0 0.00 0.00 0.00 39 1005.6
20260503231006 21 194 6.4 20.9 0.00 0.00 0.00 40 1005.7
20260503230506 21 178 9.7 22.5 0.00 0.00 0.00 40 1005.8
20260503230054 26 129 0.0 11.3 0.00 0.00 0.00 23 1017.0
20260503230019 21 182 9.7 33.8 0.00 0.00 0.00 39 1005.9
20260503225508 21 192 9.7 33.8 0.00 0.00 0.00 39 1005.9
20260503225009 21 171 8.0 22.5 0.00 0.00 0.00 40 1006.0
20260503224544 27 173 3.2 9.7 0.00 0.00 0.00 19 1016.9
20260503224525 21 188 9.7 20.9 0.00 0.00 0.00 40 1006.0
20260503224006 21 204 9.7 20.9 0.00 0.00 0.00 40 1006.1
20260503223507 21 231 8.0 22.5 0.00 0.00 0.00 40 1006.0
20260503223042 27 178 3.2 12.9 0.00 0.00 0.00 18 1017.0
20260503223036 21 246 11.3 27.4 0.00 0.00 0.00 39 1006.2
20260503222506 21 185 9.7 27.4 0.00 0.00 0.00 39 1006.2
20260503222011 21 232 6.4 24.1 0.00 0.00 0.00 40 1006.1
20260503221539 27 129 4.8 12.9 0.00 0.00 0.00 18 1017.2
20260503221512 21 236 6.4 24.1 0.00 0.00 0.00 40 1006.3
20260503221004 20 156 8.0 20.9 0.00 0.00 0.00 40 1006.2
20260503220506 20 157 9.7 22.5 0.00 0.00 0.00 40 1006.4
20260503220036 27 156 4.8 12.9 0.00 0.00 0.00 18 1017.4
20260503220018 20 134 11.3 37.0 0.00 0.00 0.00 40 1006.5
20260503215506 20 150 11.3 37.0 0.00 0.00 0.00 40 1006.4
20260503215006 20 202 14.5 37.0 0.00 0.00 0.00 40 1006.5
20260503214532 28 159 0.0 6.4 0.00 0.00 0.00 19 1017.7
20260503214524 20 219 14.5 32.2 0.00 0.00 0.00 40 1006.7
20260503214010 20 209 11.3 22.5 0.00 0.00 0.00 41 1006.6
20260503213516 20 187 9.7 24.1 0.00 0.00 0.00 41 1006.7
20260503213030 27 154 1.6 12.9 0.00 0.00 0.00 18 1017.9
20260503213025 20 198 12.9 29.0 0.00 0.00 0.00 40 1006.8
20260503212507 20 177 9.7 29.0 0.00 0.00 0.00 40 1006.9
20260503212012 20 107 9.7 32.2 0.00 0.00 0.00 41 1006.9
20260503211527 27 144 6.4 11.3 0.00 0.00 0.00 17 1018.2
20260503211014 19 165 8.0 25.7 0.00 0.00 0.00 40 1007.1
20260503210504 19 204 11.3 25.7 0.00 0.00 0.00 41 1007.2
20260503210021 28 205 0.0 9.7 0.00 0.00 0.00 18 1018.5
20260503210014 18 184 9.7 33.8 0.00 0.00 0.00 41 1007.2
20260503205508 18 213 14.5 32.2 0.00 0.00 0.00 41 1007.3
20260503205007 18 222 11.3 30.6 0.00 0.00 0.00 41 1007.4
20260503204522 18 161 14.5 30.6 0.00 0.00 0.00 41 1007.5
20260503204520 27 216 1.6 8.0 0.00 0.00 0.00 20 1018.7
20260503204006 18 203 14.5 27.4 0.00 0.00 0.00 41 1007.7
20260503203509 18 207 9.7 27.4 0.00 0.00 0.00 41 1007.8
20260503203038 18 169 6.4 25.7 0.00 0.00 0.00 41 1007.8
20260503203014 28 113 0.0 6.4 0.00 0.00 0.00 20 1018.9
20260503202510 18 206 11.3 24.1 0.00 0.00 0.00 41 1008.0
20260503202013 18 177 8.0 29.0 0.00 0.00 0.00 42 1008.0
20260503201533 18 183 11.3 29.0 0.00 0.00 0.00 41 1008.2
20260503201513 28 121 0.0 8.0 0.00 0.00 0.00 19 1019.0
20260503201006 18 194 9.7 29.0 0.00 0.00 0.00 42 1008.2
20260503200508 18 204 11.3 29.0 0.00 0.00 0.00 43 1008.2
20260503200028 18 173 8.0 27.4 0.00 0.00 0.00 45 1008.2
20260503200008 28 210 0.0 8.0 0.00 0.00 0.00 20 1019.6
20260503195511 17 350 6.4 40.2 0.00 0.00 0.00 45 1008.5
20260503195006 17 207 16.1 41.8 0.00 0.00 0.00 45 1008.6
20260503194516 17 207 19.3 41.8 0.00 0.00 0.00 45 1008.7
20260503194504 28 143 0.0 6.4 0.00 0.00 0.00 20 1019.8
20260503194005 17 154 12.9 35.4 0.00 0.00 0.00 46 1008.7
20260503193506 17 243 11.3 22.5 0.00 0.00 0.00 49 1008.7
20260503193008 17 235 6.4 24.1 0.00 0.00 0.00 50 1008.7
20260503193001 28 189 0.0 9.7 0.00 0.00 0.00 19 1020.0
20260503192503 17 194 8.0 25.7 0.00 0.00 0.00 50 1008.8
20260503192002 17 171 12.9 25.7 0.00 0.00 0.00 50 1008.9
20260503191558 28 223 0.0 4.8 0.00 0.00 0.00 19 1020.1
20260503191507 16 207 8.0 29.0 0.00 0.00 0.00 52 1008.8
20260503191004 16 199 9.7 29.0 0.00 0.00 0.00 52 1008.9
20260503190507 16 198 14.5 29.0 0.00 0.00 0.00 53 1009.1
20260503190156 28 160 1.6 11.3 0.00 0.00 0.00 19 1020.3
20260503190012 16 205 9.7 20.9 0.00 0.00 0.00 54 1009.2
20260503185503 15 172 8.0 19.3 0.00 0.00 0.00 55 1009.3
20260503185003 15 155 8.0 24.1 0.00 0.00 0.00 54 1009.4
20260503184600 27 153 0.0 6.4 0.00 0.00 0.00 24 1020.8
20260503184517 15 22 8.0 24.1 0.00 0.00 0.00 54 1009.6
20260503184004 15 178 6.4 24.1 0.00 0.00 0.00 55 1009.7
20260503183507 15 90 4.8 24.1 0.00 0.00 0.00 55 1009.8
20260503183046 28 182 0.0 11.3 0.00 0.00 0.00 22 1021.1
20260503183025 15 185 6.4 20.9 0.00 0.00 0.00 57 1009.8
20260503182459 14 161 8.0 19.3 0.00 0.00 0.00 57 1009.9
20260503182002 14 273 4.8 14.5 0.00 0.00 0.00 58 1010.0
20260503181544 28 194 0.0 1.6 0.00 0.00 0.00 25 1021.3
20260503181505 14 169 6.4 17.7 0.00 0.00 0.00 59 1010.1
20260503181003 13 169 4.8 17.7 0.00 0.00 0.00 60 1010.2
20260503180505 13 209 3.2 17.7 0.00 0.00 0.00 61 1010.3
20260503180051 27 214 3.2 9.7 0.00 0.00 0.00 20 1021.6
20260503180019 13 171 4.8 17.7 0.00 0.00 0.00 62 1010.4
20260503175504 13 174 4.8 20.9 0.00 0.00 0.00 63 1010.7
20260503175005 13 98 4.8 20.9 0.00 0.00 0.00 63 1011.1
20260503174542 27 208 0.0 3.2 0.00 0.00 0.00 24 1021.8
20260503174516 13 178 6.4 14.5 0.00 0.00 0.00 63 1011.3
20260503174007 13 177 6.4 22.5 0.00 0.00 0.00 64 1011.6
20260503173507 13 188 8.0 22.5 0.00 0.00 0.00 64 1011.7
20260503173036 13 188 6.4 16.1 0.00 0.00 0.00 67 1012.0
20260503172509 12 175 6.4 16.1 0.00 0.00 0.00 68 1012.1
20260503172010 12 180 1.6 17.7 0.00 0.00 0.00 67 1012.3
20260503171533 12 167 11.3 20.9 0.00 0.00 0.00 67 1012.4
20260503171531 26 230 1.6 6.4 0.00 0.00 0.00 26 1022.3
20260503171003 12 194 9.7 25.7 0.00 0.00 0.00 68 1012.4
20260503170503 12 135 8.0 25.7 0.00 0.00 0.00 69 1012.5
20260503151007 12 192 11.3 25.7 0.00 0.00 0.00 57 1013.5
20260503150507 12 238 12.9 25.7 0.00 0.00 0.00 57 1013.4
20260503131003 9 175 8.0 20.9 0.00 0.00 0.00 60 1014.3
20260503130503 9 221 6.4 22.5 0.00 0.00 0.00 61 1014.4
20260503110503 8 184 8.0 17.7 0.00 0.00 0.00 61 1013.9
20260503090503 7 211 1.6 9.7 0.00 0.00 0.00 60 1014.5
20260503081519 7 192 0.0 11.3 0.00 0.00 0.00 58 1014.7
20260503081517 12 123 0.0 0.0 0.00 0.00 0.00 52 1021.4
20260503081006 7 192 1.6 8.0 0.00 0.00 0.00 58 1014.7
20260503080503 7 218 1.6 9.7 0.00 0.00 0.00 58 1014.6
20260503072509 7 196 3.2 9.7 0.00 0.00 0.00 57 1014.9
20260503072004 7 205 1.6 9.7 0.00 0.00 0.00 56 1014.9
20260503071514 7 195 3.2 9.7 0.00 0.00 0.00 56 1015.0
20260503071003 7 197 1.6 8.0 0.00 0.00 0.00 56 1015.0
20260503070503 7 196 1.6 8.0 0.00 0.00 0.00 56 1015.0